Home   Weather   Limassol   Past weeks

Flag for Cyprus Past Weather in Limassol, Cyprus — Yesterday and Last 2 Weeks

Now
66 °F

Passing clouds.


Feels Like: 66 °F
Forecast: 50 / 73 °F
Wind: 20 mph from West

Location: Akrotiri

Current Time: Apr 24, 2017 at 4:27:39 pm

Latest Report: Apr 24, 2017 at 3:50 pm


Visibility: N/A

Pressure: 30.04 "Hg

Humidity: 56%

Dew Point: 50 °F

Location of LimassolLocation

Past Weather in Limassol — Graph

°F

Limassol Temperature Yesterday

Maximum temperature yesterday: 66 °F (at 12:50 am)
Minimum temperature yesterday: 59 °F (at 6:50 am)
Average temperature yesterday: 62 °F

High & Low Weather Summary for the Past Weeks

 TemperatureHumidityPressure
High81 °F (Apr 22, 11:50 am)94% (Apr 13, 12:50 pm)30.12 "Hg (Apr 13, 12:50 pm)
Low52 °F (Apr 24, 4:50 am)28% (Apr 22, 12:50 pm)29.65 "Hg (Apr 13, 4:50 pm)
Average64 °F68%29.94 "Hg
* Reported Apr 9 2:50 pm — Apr 24 2:50 pm, Limassol, Weather by CustomWeather, © 2017

Note: Actual official high and low records may vary slightly from our data, if they occured in-between our weather recording intervals... More about our weather records

Advertising

Limassol Weather History for the Previous 24 Hours

Scroll right to see more
 ConditionsComfort  
Time TempWeatherWind HumidityBarometerVisibility
2:50 pm
Mon, Apr 24
68 °FPassing clouds.9 mph43%30.07 "HgN/A
1:50 pm68 °FPassing clouds.9 mph40%30.07 "HgN/A
12:50 pm68 °FPassing clouds.9 mph43%30.07 "HgN/A
11:50 am68 °FPassing clouds.8 mph46%30.07 "HgN/A
10:50 am68 °FPassing clouds.7 mph43%30.07 "HgN/A
9:50 am66 °FSunny.6 mph46%30.07 "Hg10 mi
8:50 am64 °FSunny.1 mph49%30.07 "Hg10 mi
7:50 am57 °FSunny.3 mph55%30.04 "Hg10 mi
6:50 am52 °FSunny.5 mph72%30.01 "Hg10 mi
5:50 am52 °FPassing clouds.5 mph58%30.01 "HgN/A
4:50 am52 °FClear.6 mph67%30.01 "Hg10 mi
3:50 am55 °FClear.8 mph67%29.98 "Hg10 mi
2:50 am57 °FClear.12 mph67%29.98 "Hg10 mi
1:50 am59 °FClear.12 mph63%29.98 "Hg10 mi
12:50 am59 °FClear.15 mph59%29.98 "Hg10 mi
11:50 pm
Sun, Apr 23
59 °FClear.15 mph59%29.98 "Hg10 mi
10:50 pm59 °FClear.15 mph55%30.01 "Hg10 mi
9:50 pm59 °FClear.17 mph55%30.01 "Hg10 mi
8:50 pm59 °FPassing clouds.17 mph51%30.01 "HgN/A
7:50 pm61 °FPassing clouds.20 mph48%29.98 "HgN/A
6:50 pm63 °FPassing clouds.22 mph49%29.95 "HgN/A
5:50 pm64 °FPassing clouds.24 mph46%29.92 "HgN/A
4:50 pm63 °FPassing clouds.24 mph45%29.92 "HgN/A
Weather by CustomWeather, © 2017

See weather overviewHow to use our weather pages